TimeEDT,TemperatureF,Dew PointF,Humidity,Sea Level PressureIn,VisibilityMPH,Wind Direction,Wind SpeedMPH,Gust SpeedMPH,PrecipitationIn,Events,Conditions,WindDirDegrees,DateUTC
12:54 AM,46.0,24.1,42,30.17,10.0,NW,15.0,-,N/A,,Overcast,310,2013-03-29 04:54:00
1:54 AM,44.1,25.0,47,30.17,10.0,NW,15.0,-,N/A,,Mostly Cloudy,310,2013-03-29 05:54:00
2:54 AM,43.0,25.0,49,30.17,10.0,NW,9.2,-,N/A,,Mostly Cloudy,320,2013-03-29 06:54:00
3:54 AM,42.1,24.1,49,30.17,10.0,WNW,4.6,-,N/A,,Clear,300,2013-03-29 07:54:00
4:54 AM,42.1,24.1,49,30.18,10.0,WNW,5.8,-,N/A,,Clear,300,2013-03-29 08:54:00
5:54 AM,41.0,24.1,51,30.19,10.0,WNW,5.8,-,N/A,,Clear,290,2013-03-29 09:54:00
6:54 AM,39.9,24.1,53,30.19,10.0,West,6.9,-,N/A,,Clear,280,2013-03-29 10:54:00
7:54 AM,39.9,24.1,53,30.20,10.0,West,4.6,-,N/A,,Partly Cloudy,270,2013-03-29 11:54:00
8:54 AM,45.0,24.1,44,30.20,10.0,NW,9.2,-,N/A,,Partly Cloudy,320,2013-03-29 12:54:00
9:54 AM,48.0,24.1,39,30.20,10.0,NW,6.9,-,N/A,,Partly Cloudy,320,2013-03-29 13:54:00
10:54 AM,48.9,23.0,36,30.19,10.0,NNW,11.5,-,N/A,,Partly Cloudy,330,2013-03-29 14:54:00
11:54 AM,51.1,23.0,33,30.18,10.0,WNW,9.2,17.3,N/A,,Scattered Clouds,290,2013-03-29 15:54:00
12:54 PM,53.1,24.1,32,30.16,10.0,NW,13.8,19.6,N/A,,Mostly Cloudy,320,2013-03-29 16:54:00
1:54 PM,53.1,25.0,34,30.14,10.0,NW,15.0,-,N/A,,Mostly Cloudy,310,2013-03-29 17:54:00
2:54 PM,53.1,25.0,34,30.12,10.0,NW,10.4,-,N/A,,Mostly Cloudy,320,2013-03-29 18:54:00
3:54 PM,53.1,24.1,32,30.12,10.0,NW,15.0,24.2,N/A,,Overcast,310,2013-03-29 19:54:00
4:54 PM,53.1,24.1,32,30.12,10.0,NW,11.5,20.7,N/A,,Overcast,310,2013-03-29 20:54:00
5:54 PM,52.0,26.1,37,30.12,10.0,NW,13.8,-,N/A,,Overcast,320,2013-03-29 21:54:00
6:54 PM,52.0,25.0,35,30.13,10.0,NW,11.5,-,N/A,,Mostly Cloudy,320,2013-03-29 22:54:00
7:54 PM,51.1,27.0,39,30.14,10.0,North,6.9,-,N/A,,Mostly Cloudy,350,2013-03-29 23:54:00
8:54 PM,50.0,27.0,41,30.15,10.0,NNW,6.9,-,N/A,,Mostly Cloudy,330,2013-03-30 00:54:00
9:54 PM,50.0,26.1,39,30.17,10.0,WNW,3.5,-,N/A,,Mostly Cloudy,300,2013-03-30 01:54:00
10:54 PM,48.9,27.0,43,30.18,10.0,WNW,5.8,-,N/A,,Mostly Cloudy,290,2013-03-30 02:54:00
11:54 PM,46.9,27.0,46,30.18,10.0,NW,3.5,-,N/A,,Partly Cloudy,320,2013-03-30 03:54:00